Langdon, ND

6:38 AM CDT on May 30, 2017 (GMT -0500)
Langdon

Weather History for KD55 - April, 2013

Change the Weather History Date:

Sunday, April 28, 2013

  Actual Average (KDVL) Record (KDVL)
Temperature  
Mean Temperature 40 °F -  
Max Temperature 48 °F 55 °F 91 °F (1952)
Min Temperature 32 °F 36 °F 13 °F (1958)
Degree Days  
Heating Degree Days 24    
Moisture  
Dew Point 34 °F    
Average Humidity 78    
Maximum Humidity 100    
Minimum Humidity 61    
Precipitation  
Precipitation 0.00 in - - ()
Sea Level Pressure  
Sea Level Pressure 29.70 in    
Wind  
Wind Speed 15 mph (West)    
Max Wind Speed 23 mph    
Max Gust Speed 36 mph    
Visibility 10 miles    
Events      
Averages and records for this station are not official NWS values.
T = Trace of Precipitation, MM = Missing Value Source: NWS Daily Summary

Daily Weather History Graph

Daily Weather History Graph

Search for Another Location

Airport or City:

Trip Planner

Search our weather history database for the weather conditions in past years. The results will help you decide how hot, cold, wet, or windy it might be!

Date:

Astronomy

Apr. 28, 2013 Rise Set
Actual Time 6:18 AM CDT 8:44 PM CDT
Civil Twilight 5:43 AM CDT 9:20 PM CDT
Nautical Twilight 4:59 AM CDT 10:04 PM CDT
Astronomical Twilight 4:08 AM CDT 10:55 PM CDT
Moon No Moon Rise 8:26 AM CDT (4/28)
Length of Visible Light 15h 36m
Length of Day
14h 26m
Waning Gibbous, 88% of the Moon is Illuminated
Apr 28
Waning Gibbous
May 2
Last Quarter
May 9
New
May 17
First Quarter
May 24
Full

Hourly Weather History & Observations

Time (CDT) Temp. Windchill Dew Point Humidity Pressure Visibility Wind Dir Wind Speed Gust Speed Precip Events Conditions
12:15 AM 39.2 °F 31.6 °F 37.4 °F 93% 29.63 in 10.0 mi South 12.7 mph - N/A   Partly Cloudy
12:35 AM 37.4 °F 29.8 °F 37.4 °F 100% 29.63 in 10.0 mi South 11.5 mph - N/A   Clear
12:55 AM 39.2 °F 33.6 °F 37.4 °F 93% 29.62 in 10.0 mi SSW 8.1 mph - N/A   Clear
1:15 AM 39.2 °F 31.6 °F 37.4 °F 93% 29.61 in 10.0 mi SSW 12.7 mph - N/A   Clear
1:35 AM 39.2 °F 30.2 °F 35.6 °F 87% 29.59 in 10.0 mi SSW 17.3 mph - N/A   Clear
1:55 AM 39.2 °F 29.0 °F 33.8 °F 81% 29.58 in 10.0 mi WSW 21.9 mph - N/A   Partly Cloudy
2:15 AM 44.6 °F 35.9 °F 33.8 °F 66% 29.59 in 10.0 mi SW 23.0 mph 31.1 mph N/A   Clear
2:35 AM 41.0 °F 31.9 °F 33.8 °F 76% 29.59 in 10.0 mi SW 19.6 mph - N/A   Clear
2:55 AM 41.0 °F 32.2 °F 33.8 °F 76% 29.59 in 10.0 mi WSW 18.4 mph - N/A   Clear
3:15 AM 41.0 °F 31.4 °F 32.0 °F 70% 29.59 in 10.0 mi WSW 21.9 mph 35.7 mph N/A   Clear
3:35 AM 41.0 °F 31.4 °F 32.0 °F 70% 29.59 in 10.0 mi SW 21.9 mph - N/A   Clear
3:55 AM 41.0 °F 32.2 °F 33.8 °F 76% 29.59 in 10.0 mi SW 18.4 mph - N/A   Clear
4:15 AM 39.2 °F 29.6 °F 33.8 °F 81% 29.60 in 10.0 mi SW 19.6 mph - N/A   Clear
4:35 AM 42.8 °F 34.5 °F 35.6 °F 76% 29.59 in 10.0 mi WSW 18.4 mph 24.2 mph N/A   Clear
4:55 AM 44.6 °F 36.4 °F 35.6 °F 71% 29.60 in 10.0 mi WSW 20.7 mph - N/A   Scattered Clouds
5:15 AM 41.0 °F 33.1 °F 35.6 °F 81% 29.59 in 10.0 mi WSW 15.0 mph - N/A   Scattered Clouds
5:35 AM 46.4 °F 38.5 °F 33.8 °F 62% 29.58 in 10.0 mi West 21.9 mph 25.3 mph N/A   Partly Cloudy
5:55 AM 48.2 °F - 35.6 °F 62% 29.58 in 10.0 mi West 10.4 mph - N/A   Scattered Clouds
6:15 AM 41.0 °F 35.8 °F 35.6 °F 81% 29.57 in 10.0 mi WSW 8.1 mph - N/A   Mostly Cloudy
6:35 AM 44.6 °F 40.7 °F 35.6 °F 71% 29.56 in 10.0 mi WSW 6.9 mph - N/A   Mostly Cloudy
6:55 AM 41.0 °F 34.3 °F 33.8 °F 76% 29.56 in 10.0 mi SSW 11.5 mph - N/A   Partly Cloudy
7:15 AM 41.0 °F 34.7 °F 35.6 °F 81% 29.58 in 10.0 mi WNW 10.4 mph 17.3 mph N/A   Clear
7:35 AM 39.2 °F 31.2 °F 35.6 °F 87% 29.58 in 10.0 mi West 13.8 mph - N/A   Clear
8:15 AM 41.0 °F 34.3 °F 33.8 °F 76% 29.59 in 10.0 mi West 11.5 mph - N/A   Clear
8:35 AM 39.2 °F 32.0 °F 33.8 °F 81% 29.61 in 10.0 mi West 11.5 mph - N/A   Clear
8:55 AM 41.0 °F 32.5 °F 33.8 °F 76% 29.61 in 10.0 mi WNW 17.3 mph - N/A   Clear
9:15 AM 41.0 °F 32.2 °F 33.8 °F 76% 29.62 in 10.0 mi NW 18.4 mph 25.3 mph N/A   Clear
9:35 AM 41.0 °F 31.6 °F 33.8 °F 76% 29.62 in 10.0 mi WNW 20.7 mph - N/A   Clear
9:55 AM 41.0 °F 32.2 °F 33.8 °F 76% 29.63 in 10.0 mi WNW 18.4 mph - N/A   Clear
10:15 AM 39.2 °F 30.2 °F 35.6 °F 87% 29.64 in 10.0 mi NW 17.3 mph - N/A   Clear
10:35 AM 39.2 °F 30.2 °F 35.6 °F 87% 29.65 in 10.0 mi NW 17.3 mph - N/A   Partly Cloudy
10:55 AM 39.2 °F 30.8 °F 35.6 °F 87% 29.66 in 10.0 mi NW 15.0 mph - N/A   Scattered Clouds
11:15 AM 39.2 °F 29.8 °F 35.6 °F 87% 29.67 in 10.0 mi NW 18.4 mph - N/A   Mostly Cloudy
11:35 AM 39.2 °F 30.8 °F 35.6 °F 87% 29.68 in 10.0 mi NW 15.0 mph - N/A   Mostly Cloudy
11:55 AM 39.2 °F 31.2 °F 37.4 °F 93% 29.69 in 10.0 mi NW 13.8 mph - N/A   Partly Cloudy
12:35 PM 39.2 °F 30.8 °F 35.6 °F 87% 29.71 in 10.0 mi WNW 15.0 mph - N/A   Clear
12:55 PM 39.2 °F 30.8 °F 35.6 °F 87% 29.72 in 10.0 mi WNW 15.0 mph - N/A   Clear
1:15 PM 41.0 °F 32.8 °F 35.6 °F 81% 29.72 in 10.0 mi NW 16.1 mph - N/A   Clear
1:35 PM 41.0 °F 33.1 °F 35.6 °F 81% 29.73 in 10.0 mi NW 15.0 mph - N/A   Clear
1:55 PM 41.0 °F 32.2 °F 35.6 °F 81% 29.73 in 10.0 mi NW 18.4 mph - N/A   Clear
2:15 PM 41.0 °F 32.2 °F 33.8 °F 76% 29.74 in 10.0 mi NW 18.4 mph 23.0 mph N/A   Clear
2:35 PM 41.0 °F 32.2 °F 32.0 °F 70% 29.75 in 10.0 mi NW 18.4 mph 24.2 mph N/A   Clear
2:55 PM 41.0 °F 33.5 °F 33.8 °F 76% 29.76 in 10.0 mi WNW 13.8 mph 18.4 mph N/A   Clear
3:15 PM 41.0 °F 32.8 °F 33.8 °F 76% 29.76 in 10.0 mi WNW 16.1 mph - N/A   Clear
3:35 PM 41.0 °F 32.5 °F 32.0 °F 70% 29.77 in 10.0 mi NW 17.3 mph - N/A   Clear
3:55 PM 41.0 °F 32.2 °F 32.0 °F 70% 29.77 in 10.0 mi WNW 18.4 mph 25.3 mph N/A   Clear
4:15 PM 42.8 °F 34.0 °F 32.0 °F 66% 29.77 in 10.0 mi NW 20.7 mph 26.5 mph N/A   Clear
4:35 PM 42.8 °F 33.5 °F 32.0 °F 66% 29.78 in 10.0 mi NW 23.0 mph 26.5 mph N/A   Clear
4:55 PM 42.8 °F 33.5 °F 30.2 °F 61% 29.77 in 10.0 mi WNW 23.0 mph 29.9 mph N/A   Clear
5:15 PM 42.8 °F 34.3 °F 32.0 °F 66% 29.78 in 10.0 mi WNW 19.6 mph - N/A   Clear
5:35 PM 41.0 °F 32.5 °F 32.0 °F 70% 29.78 in 10.0 mi WNW 17.3 mph - N/A   Clear
5:55 PM 41.0 °F 31.9 °F 30.2 °F 65% 29.79 in 10.0 mi WNW 19.6 mph 25.3 mph N/A   Clear
6:15 PM 41.0 °F 32.5 °F 30.2 °F 65% 29.79 in 10.0 mi WNW 17.3 mph 25.3 mph N/A   Clear
6:35 PM 41.0 °F 32.2 °F 32.0 °F 70% 29.80 in 10.0 mi WNW 18.4 mph 23.0 mph N/A   Clear
6:55 PM 41.0 °F 32.2 °F 32.0 °F 70% 29.81 in 10.0 mi WNW 18.4 mph 23.0 mph N/A   Clear
7:15 PM 41.0 °F 33.9 °F 32.0 °F 70% 29.82 in 10.0 mi WNW 12.7 mph - N/A   Clear
7:35 PM 39.2 °F 32.5 °F 32.0 °F 75% 29.82 in 10.0 mi West 10.4 mph - N/A   Clear
7:55 PM 39.2 °F 32.0 °F 32.0 °F 75% 29.82 in 10.0 mi WNW 11.5 mph - N/A   Clear
8:15 PM 37.4 °F 29.3 °F 32.0 °F 81% 29.82 in 10.0 mi West 12.7 mph - N/A   Clear
8:35 PM 37.4 °F 28.5 °F 32.0 °F 81% 29.83 in 10.0 mi WNW 15.0 mph - N/A   Clear
8:55 PM 37.4 °F 28.9 °F 32.0 °F 81% 29.84 in 10.0 mi WNW 13.8 mph - N/A   Clear
9:15 PM 35.6 °F 27.5 °F 32.0 °F 87% 29.84 in 10.0 mi WNW 11.5 mph - N/A   Clear
9:35 PM 37.4 °F 28.2 °F 32.0 °F 81% 29.85 in 10.0 mi WNW 16.1 mph - N/A   Clear
9:55 PM 37.4 °F 28.2 °F 32.0 °F 81% 29.86 in 10.0 mi WNW 16.1 mph - N/A   Clear
10:15 PM 37.4 °F 28.2 °F 32.0 °F 81% 29.86 in 10.0 mi WNW 16.1 mph - N/A   Clear
10:35 PM 37.4 °F 28.9 °F 32.0 °F 81% 29.86 in 10.0 mi WNW 13.8 mph - N/A   Clear
10:55 PM 35.6 °F 28.6 °F 32.0 °F 87% 29.87 in 10.0 mi WNW 9.2 mph - N/A   Clear
11:15 PM 35.6 °F 28.6 °F 32.0 °F 87% 29.87 in 10.0 mi WNW 9.2 mph - N/A   Clear
11:35 PM 33.8 °F 27.0 °F 32.0 °F 93% 29.86 in 10.0 mi WNW 8.1 mph - N/A   Clear
11:55 PM 32.0 °F 24.2 °F 32.0 °F 100% 29.86 in 10.0 mi West 9.2 mph - N/A   Clear